ZAREMBO AK US current weather conditions

sailwx.info

Wind from 340 at 2 knots gusting 10

Air temperature 7.8° C
Dewpoint 3.1° C

Last reported at 2014-Oct-01 16:55 UTC.
Time now 2014-Oct-01 18:29 UTC

Location: N 56°18' W 132°51'.
View on Google Maps.

See reports from other nearby stations

  
Tides and Currents Weather Stations Pressure Air Temp Water Temp Dewpoint Dewpoint Depression Visibility Wind Speed Wind Dir Waves Ship Positions
date/time (UTC)wind fromknots sea level pressurealtimeterstation pressurevisibilityair tempwater tempwave heightnotes
2014-Oct-01 16:55 340 2 gusting 10 7.8
2014-Oct-01 15:55 143 2 gusting 11 3.9
2014-Oct-01 14:55 205 2 gusting 7 4.4
2014-Oct-01 13:55 181 2 gusting 5 3.9
2014-Oct-01 12:55 091 0 gusting 4 4.4
2014-Oct-01 11:55 064 1 gusting 3 6.1
2014-Oct-01 10:55 161 1 gusting 3 5.6
2014-Oct-01 09:55 032 1 gusting 5 5.0
2014-Oct-01 08:55 083 1 gusting 5 5.0
2014-Oct-01 07:55 021 3 gusting 6 5.6
2014-Oct-01 06:55 026 2 gusting 7 5.0
2014-Oct-01 05:55 036 2 gusting 6 5.6
2014-Oct-01 04:55 088 2 gusting 11 5.6
2014-Oct-01 03:55 043 4 gusting 9 6.1
2014-Oct-01 02:55 022 3 gusting 17 6.1
2014-Oct-01 01:55 014 9 gusting 14 8.3
2014-Oct-01 00:55 014 8 gusting 13 9.4
2014-Sep-30 23:55 007 6 gusting 14 10.6
2014-Sep-30 22:55 010 7 gusting 12 11.1
2014-Sep-30 21:55 047 6 gusting 13 11.7
2014-Sep-30 20:55 035 7 gusting 15 10.6
2014-Sep-30 19:55 029 7 gusting 15 11.1
2014-Sep-30 18:55 045 8 gusting 17 10.6
2014-Sep-30 17:55 011 5 gusting 12 8.3
2014-Sep-30 16:55 043 8 gusting 18 8.9
2014-Sep-30 15:55 358 8 gusting 16 8.9
2014-Sep-30 14:55 342 13 gusting 19 8.9
2014-Sep-30 13:55 344 7 gusting 11 9.4
2014-Sep-30 12:55 354 5 gusting 11 8.9
2014-Sep-30 11:55 358 6 gusting 10 8.9
2014-Sep-30 10:55 347 5 gusting 9 8.9
2014-Sep-30 09:55 350 5 gusting 7 9.4
2014-Sep-30 08:55 001 1 gusting 3 9.4
2014-Sep-30 07:55 069 0 gusting 3 9.4
2014-Sep-30 06:55 062 0 gusting 3 9.4
2014-Sep-30 05:55 035 1 gusting 3 9.4
2014-Sep-30 03:55 8.9
2014-Sep-30 02:55 359 1 gusting 3 9.4
2014-Sep-30 01:55 038 3 gusting 5 9.4
2014-Sep-30 00:55 001 1 gusting 6 13.3
2014-Sep-29 23:55 045 2 gusting 5 14.4
2014-Sep-29 22:55 207 3 gusting 9 11.7
2014-Sep-29 21:55 172 4 gusting 7 13.3
2014-Sep-29 20:55 289 3 gusting 6 14.4
2014-Sep-29 19:55 273 2 gusting 7 12.2
2014-Sep-29 18:55 196 2 gusting 5 11.1